Simultaneous Nadir Overpasses (SNOs) Predictions

Prediction of SNOs between METOP-B and NPP Satellite Orbit:

Table of predicted SNOs for the next 14.0 days since TLE Epoch: 12/23/2013
Index Date (METOP-B) Time (METOP-B) Lat,Lon (METOP-B) SZA (METOP-B ) Date (NPP) Time (NPP) Lat,Lon (NPP) SZA (NPP ) Distance(km) Time Diff (sec)
1 01/03/2014 06:18:06 73.36, 79.10 96.22 01/03/2014 06:16:58 73.39, 76.62 96.36 78.87 68
2 01/03/2014 07:08:49 -73.32,-113.66 83.82 01/03/2014 07:07:40 -73.30,-115.86 83.74 70.32 69
3 01/03/2014 07:59:33 73.09, 53.16 95.96 01/03/2014 07:58:22 73.09, 51.91 96.03 40.22 71
4 01/03/2014 08:50:17 -73.00,-139.70 84.13 01/03/2014 08:49:04 -73.00,-140.57 84.08 28.37 73
5 01/03/2014 09:41:00 72.81, 27.24 95.70 01/03/2014 09:39:46 72.79, 27.19 95.69 3.15 74
6 01/03/2014 10:31:43 -72.78,-165.51 84.34 01/03/2014 10:30:30 -72.80,-165.52 84.30 2.41 73
7 01/03/2014 11:22:22 72.79, 1.85 95.68 01/03/2014 11:21:16 72.79, 1.81 95.69 1.45 66
8 01/03/2014 12:13:05 -72.76, 169.11 84.36 01/03/2014 12:11:59 -72.75, 169.21 84.36 3.48 66
9 01/03/2014 13:03:44 72.77, -23.53 95.65 01/03/2014 13:02:46 72.79, -23.56 95.68 2.27 58
10 01/03/2014 13:54:26 -72.79, 143.83 84.34 01/03/2014 13:53:30 -72.80, 143.73 84.31 3.64 56
11 01/03/2014 14:45:05 72.75, -48.91 95.63 01/03/2014 14:44:14 72.74, -48.83 95.62 2.88 51
12 01/03/2014 15:35:47 -72.77, 118.45 84.37 01/03/2014 15:34:58 -72.75, 118.46 84.37 1.93 49
13 01/03/2014 16:26:27 72.73, -74.29 95.60 01/03/2014 16:25:44 72.74, -74.21 95.62 2.91 43
14 01/03/2014 17:17:09 -72.75, 93.07 84.39 01/03/2014 17:16:28 -72.75, 93.08 84.38 0.70 41
15 01/03/2014 18:07:48 72.76, -99.57 95.62 01/03/2014 18:07:14 72.74, -99.58 95.61 2.41 34
16 01/03/2014 18:58:31 -72.73, 67.68 84.42 01/03/2014 18:57:58 -72.75, 67.71 84.39 2.85 33
17 01/03/2014 19:49:10 72.74,-124.95 95.60 01/03/2014 19:48:44 72.74,-124.96 95.60 0.29 26
18 01/03/2014 20:39:52 -72.76, 42.41 84.40 01/03/2014 20:39:28 -72.75, 42.33 84.39 2.52 24
19 01/03/2014 21:30:32 72.72,-150.33 95.57 01/03/2014 21:30:14 72.74,-150.34 95.60 2.30 18
20 01/03/2014 22:21:14 -72.74, 17.03 84.42 01/03/2014 22:20:58 -72.75, 16.96 84.40 2.85 16
21 01/03/2014 23:11:53 72.75,-175.61 95.59 01/03/2014 23:11:44 72.74,-175.71 95.59 3.48 9
22 01/04/2014 00:02:36 -72.72, -8.36 84.45 01/04/2014 00:02:27 -72.70, -8.31 84.46 2.11 9
23 01/04/2014 00:53:15 72.73, 159.01 95.57 01/04/2014 00:53:14 72.74, 158.91 95.58 3.38 1
24 01/04/2014 01:43:58 -72.70, -33.74 84.47 01/04/2014 01:43:57 -72.70, -33.69 84.47 1.85 1
25 01/04/2014 02:34:37 72.71, 133.63 95.54 01/04/2014 02:34:43 72.69, 133.64 95.52 2.07 6
26 01/04/2014 03:25:19 -72.73, -59.02 84.45 01/04/2014 03:25:27 -72.70, -59.06 84.47 2.97 8
27 01/04/2014 04:15:59 72.69, 108.24 95.52 01/04/2014 04:16:13 72.69, 108.27 95.52 0.86 14
28 01/04/2014 05:06:41 -72.71, -84.40 84.48 01/04/2014 05:06:57 -72.70, -84.44 84.48 1.37 16
29 01/04/2014 05:57:21 72.67, 82.86 95.49 01/04/2014 05:57:43 72.69, 82.89 95.51 2.86 22
30 01/04/2014 06:48:03 -72.68,-109.78 84.50 01/04/2014 06:48:27 -72.70,-109.81 84.49 2.43 24
31 01/04/2014 07:38:42 72.70, 57.58 95.51 01/04/2014 07:39:13 72.69, 57.52 95.50 2.34 31
32 01/04/2014 08:29:25 -72.66,-135.16 84.53 01/04/2014 08:29:56 -72.65,-135.09 84.55 2.78 31
33 01/04/2014 09:20:04 72.68, 32.20 95.49 01/04/2014 09:20:43 72.69, 32.14 95.50 2.66 39
34 01/04/2014 10:10:47 -72.64,-160.54 84.55 01/04/2014 10:11:26 -72.65,-160.46 84.55 2.99 39
35 01/04/2014 11:01:26 72.66, 6.82 95.46 01/04/2014 11:02:12 72.64, 6.87 95.44 2.29 46
36 01/04/2014 11:52:08 -72.67, 174.18 84.53 01/04/2014 11:52:56 -72.65, 174.16 84.56 2.18 48
37 01/04/2014 12:42:48 72.64, -18.56 95.43 01/04/2014 12:43:42 72.64, -18.51 95.43 1.98 54
38 01/04/2014 13:33:30 -72.65, 148.80 84.56 01/04/2014 13:34:26 -72.66, 148.79 84.57 0.35 56
39 01/04/2014 14:24:09 72.67, -43.84 95.46 01/04/2014 14:25:12 72.64, -43.88 95.42 2.94 63
40 01/04/2014 15:14:52 -72.63, 123.42 84.59 01/04/2014 15:15:56 -72.66, 123.41 84.57 2.55 64
41 01/04/2014 16:05:31 72.65, -69.22 95.43 01/04/2014 16:06:42 72.64, -69.26 95.42 1.23 71
42 01/04/2014 16:56:13
